This is the latest recevied weather packets stored in our database for station/object EW8324. If no packets are shown the sender has not sent any weather packets the latest 10 day(s).
| Time | Temp. | Humidity | Pressure | Rain* | Wind** | Luminosity | Snow |
|---|---|---|---|---|---|---|---|
| 1777752832 | 24.44° C | 43% | 1014.5 hPa | 1.02 mm | - | 65 W/m² | - |
| 1777752534 | 25° C | 43% | 1014.5 hPa | 1.02 mm | - | 744 W/m² | - |
| 1777752231 | 25° C | 43% | 1014.7 hPa | 1.02 mm | - | 851 W/m² | - |
| 1777751936 | 25° C | 44% | 1014.6 hPa | 1.02 mm | - | 856 W/m² | - |
| 1777751633 | 24.44° C | 43% | 1014.6 hPa | 1.02 mm | - | 867 W/m² | - |
| 1777751329 | 24.44° C | 44% | 1014.8 hPa | 1.02 mm | - | 879 W/m² | - |
| 1777751026 | 25° C | 43% | 1014.9 hPa | 1.27 mm | - | 893 W/m² | - |
| 1777750796 | 25° C | 44% | 1015 hPa | 1.02 mm | - | 902 W/m² | - |
| 1777750432 | 25° C | 46% | 1015.1 hPa | 1.02 mm | - | 902 W/m² | - |
| 1777750134 | 25° C | 46% | 1015 hPa | 1.27 mm | - | 904 W/m² | - |
| 1777749830 | 25° C | 47% | 1015.1 hPa | 1.02 mm | - | 913 W/m² | - |
| 1777749532 | 25° C | 48% | 1015.2 hPa | 1.02 mm | - | 775 W/m² | - |
| 1777749228 | 25° C | 46% | 1015.2 hPa | 1.02 mm | - | 925 W/m² | - |
| 1777748928 | 25° C | 49% | 1015.3 hPa | 1.02 mm | - | 927 W/m² | - |
| 1777748685 | 25° C | 45% | 1015.3 hPa | 1.02 mm | - | 930 W/m² | - |
| 1777748332 | - | - | 1015.4 hPa | 1.02 mm | - | - | - |
| 1777748029 | 25.56° C | 49% | 1015.4 hPa | 1.02 mm | - | 935 W/m² | - |
| 1777747733 | 25° C | 49% | 1015.4 hPa | 1.27 mm | - | 939 W/m² | - |
| 1777747430 | 25° C | 47% | 1015.6 hPa | 1.02 mm | - | 935 W/m² | - |
| 1777747131 | 25° C | 47% | 1015.6 hPa | 1.02 mm | - | 955 W/m² | - |
| 1777746888 | 25° C | 47% | 1015.6 hPa | 1.02 mm | - | 943 W/m² | - |
| 1777746592 | 24.44° C | 49% | 1015.7 hPa | 0.76 mm | - | 944 W/m² | - |
| 1777746230 | 24.44° C | 48% | 1015.7 hPa | 0.76 mm | - | 946 W/m² | - |
| 1777745930 | 24.44° C | 50% | 1015.7 hPa | 0.76 mm | - | 976 W/m² | - |
| 1777745689 | 24.44° C | 48% | 1016 hPa | 0.51 mm | - | 944 W/m² | - |
* Rain latest hour (hover to see other rain measurements)
** Current wind speed in m/s (hover to see current wind gust speed)